Regional Weather Roundup
Issued by NWS

Home | Current Version | Previous Version | Graphics & Text | Print | Product List | Glossary On
Versions: 1 2 3 4 5 6 7 8 9 10 11 12 13 14 15 16 17 18 19 20 21 22 23 24 25 26 27 28 29 30 31 32 33 34 35 36 37 38 39 40 41 42 43 44 45 46 47 48 49 50
520
ASUS43 KOAX 190002
RWRNE

WEATHER ROUNDUP FOR NEBRASKA
NATIONAL WEATHER SERVICE OMAHA NE
600 PM CST WED JAN 18 2017

NOTES: SATELLITE DATA IS BEING USED TO AUGMENT CLOUD COVER ABOVE
       12000 FEET.
       "FAIR" INDICATES FEW OR NO CLOUDS BELOW 12,000 FEET WITH NO
       SIGNIFICANT WEATHER AND/OR OBSTRUCTIONS TO VISIBILITY.

  * THESE STATIONS DO NOT REPORT WEATHER SUCH AS RAIN...SNOW OR FOG.

NEZ001>004-019>022-054>056-190100-
NEBRASKA PANHANDLE

CITY           SKY/WX    TMP DP  RH WIND       PRES   REMARKS
SCOTTSBLUFF    CLOUDY    44  26  49 S5        29.72F
6HR MIN TEMP:  42; 6HR MAX TEMP:  55;

ALLIANCE       CLOUDY    40  22  48 CALM      29.71F
6HR MIN TEMP:  40; 6HR MAX TEMP:  52;

CHADRON        CLOUDY    35  24  64 SW6       29.67F WCI  30
6HR MIN TEMP:  33; 6HR MAX TEMP:  40;

SIDNEY         CLEAR     35  29  78 S9        29.75S WCI  28
6HR MIN TEMP:  35; 6HR MAX TEMP:  51;

$$

NEZ057>060-069>072-079>082-190100-
SOUTHWEST NEBRASKA

CITY           SKY/WX    TMP DP  RH WIND       PRES   REMARKS
NORTH PLATTE   CLOUDY    36  30  79 S6        29.80S WCI  31
6HR MIN TEMP:  36; 6HR MAX TEMP:  51;

IMPERIAL       CLOUDY    35  29  78 S6        29.79F WCI  30
6HR MIN TEMP:  35; 6HR MAX TEMP:  47;

LEXINGTON      CLOUDY    43  36  76 S10       29.81F
MCCOOK         CLEAR     42  36  79 SW6       29.81F
6HR MIN TEMP:  34; 6HR MAX TEMP:  51;

OGALLALA       CLEAR     42  32  68 S3        29.77S
$$

NEZ005>010-023>029-035>040-094-190100-
NORTH CENTRAL NEBRASKA

CITY           SKY/WX    TMP DP  RH WIND       PRES   REMARKS
VALENTINE      CLOUDY    46  20  35 S13       29.70F
6HR MIN TEMP:  46; 6HR MAX TEMP:  61;

AINSWORTH      CLEAR     40  22  48 S8        29.72F WCI  35
BROKEN BOW     CLOUDY    36  32  85 SW3       29.80S
6HR MIN TEMP:  36; 6HR MAX TEMP:  48;

O`NEILL        CLEAR     43  37  78 S10       29.76F
ORD            CLEAR     36  31  82 CALM      29.81S
6HR MIN TEMP:  36; 6HR MAX TEMP:  48;

THEDFORD       CLEAR     42  27  54 S6        29.75F
$$

NEZ041-046>049-061>064-073>077-083>087-190100-
SOUTH CENTRAL NEBRASKA

CITY           SKY/WX    TMP DP  RH WIND       PRES   REMARKS
GRAND ISLAND   PTCLDY    42  40  92 S7        29.84S
6HR MIN TEMP:  41; 6HR MAX TEMP:  48;

AURORA         CLEAR     42  40  91 S12       29.84F
HASTINGS       CLEAR     43  38  82 S6        29.86S
6HR MIN TEMP:  39; 6HR MAX TEMP:  49;

HEBRON         CLEAR     40  35  82 CALM      29.89F
HOLDREGE       CLEAR     40  35  81 S9        29.83S WCI  34
KEARNEY *      PTCLDY    45  37  76 SW12      29.83F
YORK           CLEAR     41  37  87 S12       29.87S
$$

NEZ011>018-030>034-042>045-190100-
NORTHEAST NEBRASKA

CITY           SKY/WX    TMP DP  RH WIND       PRES   REMARKS
NORFOLK        CLEAR     41  37  86 SW3       29.82S
6HR MIN TEMP:  41; 6HR MAX TEMP:  49;

ALBION         CLEAR     40  36  86 SE3       29.83R
BLAIR          CLEAR     44  37  76 S9        29.89R
FREMONT        CLEAR     44  37  74 SE5       29.89R
TEKAMAH        CLEAR     40  35  83 S14       29.88S WCI  32
6HR MIN TEMP:  40; 6HR MAX TEMP:  50;

WAYNE          CLEAR     38  37  93 S8        29.84S WCI  32
$$

NEZ050>053-065>068-078-088>093-190100-
SOUTHEAST NEBRASKA

CITY           SKY/WX    TMP DP  RH WIND       PRES   REMARKS
LINCOLN        CLEAR     42  37  82 S10       29.89F
6HR MIN TEMP:  42; 6HR MAX TEMP:  51;

OMAHA EPPLEY   PTCLDY    44  37  76 SE10      29.90S
6HR MIN TEMP:  41; 6HR MAX TEMP:  49;

BEATRICE       CLEAR     45  37  73 S8        29.90S
FALLS CITY     CLEAR     40  35  83 SE9       29.95S WCI  34
6HR MIN TEMP:  40; 6HR MAX TEMP:  52;

NEBRASKA CITY  CLEAR     41  34  75 S8        29.93S
PLATTSMOUTH    CLEAR     45  34  65 S9        29.90F
$$

NEZ044-045-051>053-067-190100-
OMAHA AREA

CITY           SKY/WX    TMP DP  RH WIND       PRES   REMARKS
OMAHA EPPLEY   PTCLDY    44  37  76 SE10      29.90S
6HR MIN TEMP:  41; 6HR MAX TEMP:  49;

BLAIR          CLEAR     44  37  76 S9        29.89R
FREMONT        CLEAR     44  37  74 SE5       29.89R
OFFUTT AFB     CLEAR     43  39  88 SE7       29.90F
PLATTSMOUTH    CLEAR     45  34  65 S9        29.90F
WAHOO          FAIR      39  34  83 S6        29.89R WCI  35
$$




USA.gov is the U.S. government's official web portal to all federal, state and local government web resources and services.